FW0010 Weather Reports


Display with metric or nautical units.
time (UTC)temp
F
wind
direction
speed
MPH
gust
MPH
rain 1hr
in
rain 24hr
in
rain mn
in
humidity
%
barometer
mb
20221003221809 54 272 0.0 5.0 0.00 0.00 0.00 91 1024.1
20221003221302 54 268 1.0 3.0 0.00 0.00 0.00 92 1024.1
20221003220756 53 251 1.0 3.0 0.00 0.00 0.00 93 1024.0
20221003220752 53 246 0.0 4.0 0.00 0.00 0.00 94 1024.0
20221003215746 52 291 0.0 4.0 0.00 0.00 0.00 96 1023.9
20221003215740 51 315 0.0 2.0 0.00 0.00 0.00 96 1023.8
20221003214733 50 350 0.0 2.0 0.00 0.00 0.00 96 1023.8
20221003214227 50 287 0.0 1.0 0.00 0.00 0.00 96 1023.7
20221003213720 49 291 0.0 1.0 0.00 0.00 0.00 96 1023.8
20221003213445 48 304 0.0 1.0 0.00 0.00 0.00 96 1023.8
20221003212708 48 335 0.0 1.0 0.00 0.00 0.00 96 1023.7
20221003212203 47 313 1.0 2.0 0.00 0.00 0.00 96 1023.7
20221003211656 47 327 1.0 2.0 0.00 0.00 0.00 96 1023.7
20221003211151 46 324 1.0 3.0 0.00 0.00 0.00 96 1023.6
20221003210645 46 329 2.0 4.0 0.00 0.00 0.00 95 1023.5
20221003210137 46 324 2.0 4.0 0.00 0.00 0.00 95 1023.4
20221003205635 46 325 1.0 3.0 0.00 0.00 0.00 96 1023.4
20221003205629 46 330 1.0 2.0 0.00 0.00 0.00 96 1023.3
20221003204953 46 330 0.0 1.0 0.00 0.00 0.00 96 1023.3
20221003203607 45 334 0.0 1.0 0.00 0.00 0.00 96 1023.2
20221003203102 44 334 0.0 1.0 0.00 0.00 0.00 96 1023.2
20221003202827 44 334 0.0 0.0 0.00 0.00 0.00 96 1023.0
20221003202051 44 334 0.0 0.0 0.00 0.00 0.00 96 1022.9
20221003202046 43 334 0.0 0.0 0.00 0.00 0.00 96 1022.8
20221003201039 43 334 0.0 0.0 0.00 0.00 0.00 96 1022.7
20221003201033 43 329 0.0 2.0 0.00 0.00 0.00 96 1022.5
20221003200029 42 329 0.0 2.0 0.00 0.00 0.00 96 1022.4
20221003195801 42 329 0.0 1.0 0.00 0.00 0.00 96 1022.5
20221003195027 42 329 0.0 0.0 0.00 0.00 0.00 96 1022.3
20221003194525 42 329 0.0 0.0 0.00 0.00 0.00 96 1022.3
20221003194024 42 329 0.0 0.0 0.00 0.00 0.00 95 1022.2
20221003193521 42 329 0.0 0.0 0.00 0.00 0.00 95 1022.3
20221003193019 42 329 0.0 0.0 0.00 0.00 0.00 95 1022.1
20221003192516 42 329 0.0 0.0 0.00 0.00 0.00 95 1022.1
20221003192017 42 329 0.0 0.0 0.00 0.00 0.00 95 1022.0
20221003191518 42 329 0.0 0.0 0.00 0.00 0.00 95 1021.9
20221003190512 43 329 0.0 1.0 0.00 0.00 0.00 95 1021.8
20221003190244 43 312 0.0 0.0 0.00 0.00 0.00 95 1021.7
20221003190126 43 311 0.0 0.0 0.00 0.00 0.00 96 1021.7
20221003185013 43 320 0.0 0.0 0.00 0.00 0.00 96 1021.5
20221003184513 43 320 0.0 0.0 0.00 0.00 0.00 95 1021.5
20221003184015 43 320 0.0 0.0 0.00 0.00 0.00 95 1021.4
20221003183740 43 320 0.0 0.0 0.00 0.00 0.00 95 1021.4
20221003183240 43 320 0.0 0.0 0.00 0.00 0.00 95 1021.2
20221003182509 43 320 0.0 0.0 0.00 0.00 0.00 95 1021.1
20221003182009 43 320 0.0 0.0 0.00 0.00 0.00 95 1021.0
20221003181509 43 320 0.0 0.0 0.00 0.00 0.00 95 1021.1
20221003181240 43 320 0.0 0.0 0.00 0.00 0.00 95 1021.0
20221003180509 44 320 0.0 0.0 0.00 0.00 0.00 95 1021.1
20221003180009 44 320 0.0 0.0 0.00 0.00 0.00 95 1021.0
20221003175514 44 320 0.0 0.0 0.00 0.00 0.00 95 1021.0
20221003175507 44 320 0.0 0.0 0.00 0.00 0.00 95 1020.9
20221003175120 44 320 0.0 0.0 0.00 0.00 0.00 95 1021.0
20221003174007 44 320 0.0 0.0 0.00 0.00 0.00 95 1020.9
20221003173505 44 320 0.0 0.0 0.00 0.00 0.00 95 1020.9
20221003173004 44 320 0.0 0.0 0.00 0.00 0.00 95 1020.9
20221003172736 44 320 0.0 0.0 0.00 0.00 0.00 95 1020.8
20221003172238 44 320 0.0 0.0 0.00 0.00 0.00 95 1020.8
20221003171506 44 320 0.0 0.0 0.00 0.00 0.00 95 1020.8
20221003171005 44 320 0.0 0.0 0.00 0.00 0.00 95 1020.8
20221003170500 44 320 0.0 0.0 0.00 0.00 0.00 95 1020.8
20221003170001 44 320 0.0 0.0 0.00 0.00 0.00 95 1020.7
20221003165732 44 320 0.0 0.0 0.00 0.00 0.00 95 1020.7
20221003165000 44 320 0.0 0.0 0.00 0.00 0.00 95 1020.6
20221003164734 44 320 0.0 0.0 0.00 0.00 0.00 95 1020.7
20221003164615 44 320 0.0 0.0 0.00 0.00 0.00 94 1020.8
20221003163500 44 320 0.0 0.0 0.00 0.00 0.00 94 1020.7
20221003163233 44 320 0.0 0.0 0.00 0.00 0.00 94 1020.8
20221003163115 44 320 0.0 0.0 0.00 0.00 0.00 95 1020.7
20221003162615 44 320 0.0 0.0 0.00 0.00 0.00 94 1020.6
20221003161501 44 320 0.0 0.0 0.00 0.00 0.00 94 1020.5
20221003161005 44 320 0.0 0.0 0.00 0.00 0.00 94 1020.6
20221003161001 44 320 0.0 0.0 0.00 0.00 0.00 94 1020.5
20221003160000 44 320 0.0 0.0 0.00 0.00 0.00 94 1020.6
20221003155500 45 320 0.0 0.0 0.00 0.00 0.00 94 1020.6
20221003155007 44 320 0.0 0.0 0.00 0.00 0.00 94 1020.7
20221003155001 44 320 0.0 0.0 0.00 0.00 0.00 94 1020.6
20221003153957 45 320 0.0 0.0 0.00 0.00 0.00 94 1020.7
20221003153455 45 317 0.0 0.0 0.00 0.00 0.00 93 1020.7
20221003152953 45 315 0.0 0.0 0.00 0.00 0.00 93 1020.7
20221003152453 45 320 0.0 0.0 0.00 0.00 0.00 93 1020.5
20221003151947 46 320 0.0 0.0 0.00 0.00 0.00 94 1020.5
20221003151441 46 320 0.0 0.0 0.00 0.00 0.00 94 1020.5
20221003150935 46 320 0.0 0.0 0.00 0.00 0.00 94 1020.4
20221003150430 46 320 0.0 0.0 0.00 0.00 0.00 94 1020.4
20221003150154 46 320 0.0 0.0 0.00 0.00 0.00 93 1020.4
20221003145418 46 320 0.0 0.0 0.00 0.00 0.00 93 1020.5
20221003145145 46 320 0.0 0.0 0.00 0.00 0.00 93 1020.6
20221003144907 46 320 0.0 0.0 0.00 0.00 0.00 93 1020.6
20221003143900 46 320 0.0 0.0 0.00 0.00 0.00 93 1020.6
20221003143354 46 320 0.0 0.0 0.00 0.00 0.00 92 1020.7
20221003142846 46 320 0.0 0.0 0.00 0.00 0.00 92 1020.6
20221003142341 47 320 0.0 0.0 0.00 0.00 0.00 92 1020.7
20221003141836 47 320 0.0 0.0 0.00 0.00 0.00 92 1020.7
20221003141330 47 320 0.0 0.0 0.00 0.00 0.00 92 1020.7
20221003140824 47 320 0.0 0.0 0.00 0.00 0.00 92 1020.7
20221003140548 47 321 0.0 0.0 0.00 0.00 0.00 92 1020.6
20221003135811 47 321 0.0 0.0 0.00 0.00 0.00 93 1020.5
20221003135805 47 320 0.0 0.0 0.00 0.00 0.00 93 1020.5
20221003135030 47 320 0.0 0.0 0.00 0.00 0.00 92 1020.4
20221003134526 47 320 0.0 1.0 0.00 0.00 0.00 92 1020.5
20221003134251 47 320 0.0 1.0 0.00 0.00 0.00 93 1020.3
20221003133511 47 335 0.0 1.0 0.00 0.00 0.00 92 1020.3
20221003132735 47 334 0.0 0.0 0.00 0.00 0.00 92 1020.3
20221003132459 47 334 0.0 1.0 0.00 0.00 0.00 92 1020.5
20221003131723 47 332 0.0 1.0 0.00 0.00 0.00 91 1020.5
20221003131449 47 332 0.0 2.0 0.00 0.00 0.00 91 1020.4
20221003130709 47 332 1.0 2.0 0.00 0.00 0.00 91 1020.3
20221003130205 48 333 0.0 2.0 0.00 0.00 0.00 91 1020.3
20221003125659 48 327 0.0 2.0 0.00 0.00 0.00 91 1020.4
20221003125151 48 330 0.0 0.0 0.00 0.00 0.00 91 1020.4
20221003124647 48 330 0.0 0.0 0.00 0.00 0.00 91 1020.5
20221003124142 48 330 0.0 0.0 0.00 0.00 0.00 91 1020.6
20221003123635 48 330 0.0 0.0 0.00 0.00 0.00 91 1020.7
20221003123129 48 330 0.0 0.0 0.00 0.00 0.00 91 1020.7
20221003122623 48 332 0.0 0.0 0.00 0.00 0.00 91 1020.7
20221003122116 48 332 0.0 0.0 0.00 0.00 0.00 91 1020.8
20221003121842 48 332 0.0 0.0 0.00 0.00 0.00 91 1020.8
20221003121105 48 332 0.0 0.0 0.00 0.00 0.00 91 1020.8
20221003120831 48 332 0.0 0.0 0.00 0.00 0.00 90 1020.7
20221003120053 48 332 0.0 0.0 0.00 0.00 0.00 90 1020.8
20221003115816 48 332 0.0 0.0 0.00 0.00 0.00 90 1020.8
20221003115312 48 332 0.0 0.0 0.00 0.00 0.00 90 1020.7
20221003114536 48 332 0.0 0.0 0.00 0.00 0.00 90 1020.7
20221003114030 48 332 0.0 0.0 0.00 0.00 0.00 90 1020.7
20221003113524 48 332 0.0 0.0 0.00 0.00 0.00 89 1020.7
20221003113017 48 332 0.0 0.0 0.00 0.00 0.00 89 1020.7
20221003112510 49 332 0.0 0.0 0.00 0.00 0.00 89 1020.7
20221003112004 49 332 0.0 0.0 0.00 0.00 0.00 89 1020.7
20221003111459 49 332 0.0 0.0 0.00 0.00 0.00 89 1020.6
20221003110953 49 332 0.0 0.0 0.00 0.00 0.00 89 1020.6
20221003110449 49 332 0.0 0.0 0.00 0.00 0.00 89 1020.6
20221003105942 49 332 0.0 1.0 0.00 0.00 0.00 89 1020.5
20221003105436 49 332 0.0 1.0 0.00 0.00 0.00 89 1020.5
20221003104929 49 332 0.0 1.0 0.00 0.00 0.00 89 1020.5
20221003104423 49 332 0.0 1.0 0.00 0.00 0.00 89 1020.5
20221003103918 49 333 0.0 1.0 0.00 0.00 0.00 89 1020.5
20221003103411 49 333 0.0 1.0 0.00 0.00 0.00 89 1020.5
20221003103137 49 335 0.0 1.0 0.00 0.00 0.00 88 1020.5
20221003102400 50 335 0.0 0.0 0.00 0.00 0.00 87 1020.4
20221003102123 50 335 0.0 0.0 0.00 0.00 0.00 87 1020.4
20221003101347 50 335 0.0 1.0 0.00 0.00 0.00 87 1020.3
20221003100841 50 335 0.0 1.0 0.00 0.00 0.00 87 1020.2
20221003100606 50 335 0.0 1.0 0.00 0.00 0.00 87 1020.2
20221003095829 50 335 0.0 0.0 0.00 0.00 0.00 85 1020.2
20221003095323 50 335 0.0 0.0 0.00 0.00 0.00 83 1020.3
20221003094817 51 335 0.0 0.0 0.00 0.00 0.00 84 1020.3
20221003094311 51 335 0.0 0.0 0.00 0.00 0.00 84 1020.3
20221003093805 51 335 0.0 0.0 0.00 0.00 0.00 83 1020.3
20221003093259 52 335 0.0 0.0 0.00 0.00 0.00 83 1020.1
20221003092753 52 335 0.0 0.0 0.00 0.00 0.00 83 1020.1
20221003092517 53 335 0.0 1.0 0.00 0.00 0.00 82 1020.1
20221003091740 53 335 0.0 1.0 0.00 0.00 0.00 82 1020.0
20221003091235 53 335 0.0 1.0 0.00 0.00 0.00 81 1019.9
20221003090729 54 21 0.0 1.0 0.00 0.00 0.00 80 1020.0
20221003090454 54 116 0.0 1.0 0.00 0.00 0.00 79 1019.9
20221003085948 54 116 0.0 0.0 0.00 0.00 0.00 76 1019.7
20221003085210 54 116 0.0 0.0 0.00 0.00 0.00 76 1019.7
20221003084706 55 116 0.0 0.0 0.00 0.00 0.00 76 1019.7
20221003084200 55 116 0.0 0.0 0.00 0.00 0.00 76 1019.6
20221003083652 55 116 0.0 1.0 0.00 0.00 0.00 75 1019.5
20221003083418 56 116 0.0 2.0 0.00 0.00 0.00 75 1019.5
20221003082646 56 116 1.0 2.0 0.00 0.00 0.00 74 1019.5
20221003082147 56 141 1.0 2.0 0.00 0.00 0.00 73 1019.5
20221003081647 56 98 1.0 2.0 0.00 0.00 0.00 73 1019.4
20221003081147 56 111 1.0 2.0 0.00 0.00 0.00 72 1019.3
20221003080647 57 113 1.0 3.0 0.00 0.00 0.00 72 1019.1
20221003080147 57 100 2.0 4.0 0.00 0.00 0.00 71 1019.1
20221003075646 57 89 2.0 5.0 0.00 0.00 0.00 71 1019.1
20221003075417 58 89 2.0 5.0 0.00 0.00 0.00 71 1019.1
20221003074645 58 123 3.0 6.0 0.00 0.00 0.00 71 1019.1
20221003074148 58 140 3.0 6.0 0.00 0.00 0.00 69 1019.1
20221003073642 59 132 3.0 7.0 0.00 0.00 0.00 70 1019.0
20221003073415 59 149 3.0 7.0 0.00 0.00 0.00 69 1019.0
20221003072642 59 98 3.0 6.0 0.00 0.00 0.00 68 1018.9
20221003072414 59 141 3.0 7.0 0.00 0.00 0.00 68 1018.8
20221003071142 59 161 3.0 6.0 0.00 0.00 0.00 70 1018.8
20221003070641 59 76 3.0 8.0 0.00 0.00 0.00 71 1018.7
20221003070413 59 143 4.0 10.0 0.00 0.00 0.00 71 1018.6
20221003065643 59 85 4.0 10.0 0.00 0.00 0.00 70 1018.5
20221003065138 59 121 4.0 10.0 0.00 0.00 0.00 69 1018.4
20221003064638 59 135 4.0 10.0 0.00 0.00 0.00 69 1018.3
20221003064139 60 97 4.0 8.0 0.00 0.00 0.00 69 1018.3
20221003063909 60 92 3.0 8.0 0.00 0.00 0.00 69 1018.3
20221003063409 60 98 4.0 9.0 0.00 0.00 0.00 69 1018.2
20221003062637 60 99 4.0 9.0 0.00 0.00 0.00 69 1018.1
20221003062137 60 139 5.0 9.0 0.00 0.00 0.00 69 1018.1
20221003061910 60 141 5.0 9.0 0.00 0.00 0.00 68 1018.1
20221003061140 60 124 4.0 9.0 0.00 0.00 0.00 68 1018.0
20221003060634 60 142 4.0 9.0 0.00 0.00 0.00 67 1017.9
20221003060135 61 101 4.0 7.0 0.00 0.00 0.00 67 1017.8
20221003055636 61 104 4.0 7.0 0.00 0.00 0.00 67 1017.7
20221003055136 61 178 5.0 8.0 0.00 0.00 0.00 67 1017.8
20221003054634 61 131 5.0 9.0 0.00 0.00 0.00 66 1017.9
20221003054134 62 97 4.0 10.0 0.00 0.00 0.00 65 1017.9
20221003053635 62 93 4.0 10.0 0.00 0.00 0.00 64 1017.8
20221003053133 62 136 4.0 8.0 0.00 0.00 0.00 66 1017.8
20221003052635 62 124 4.0 8.0 0.00 0.00 0.00 66 1017.8
20221003052134 63 139 4.0 8.0 0.00 0.00 0.00 65 1017.7
20221003051904 63 120 3.0 7.0 0.00 0.00 0.00 63 1017.8
20221003051134 63 107 3.0 7.0 0.00 0.00 0.00 63 1017.8
20221003050635 63 93 4.0 7.0 0.00 0.00 0.00 63 1017.8
20221003050131 63 141 3.0 7.0 0.00 0.00 0.00 63 1017.8
20221003045632 63 133 3.0 6.0 0.00 0.00 0.00 65 1017.9
20221003045128 63 117 4.0 7.0 0.00 0.00 0.00 66 1018.0
20221003044628 62 142 4.0 8.0 0.00 0.00 0.00 66 1018.0
20221003044127 62 151 4.0 8.0 0.00 0.00 0.00 66 1018.0
20221003043859 62 118 4.0 7.0 0.00 0.00 0.00 64 1018.0
20221003043129 63 128 4.0 8.0 0.00 0.00 0.00 64 1017.9
20221003042627 63 145 4.0 8.0 0.00 0.00 0.00 63 1017.9
20221003042125 63 116 4.0 9.0 0.00 0.00 0.00 65 1017.9
20221003041625 62 130 4.0 9.0 0.00 0.00 0.00 64 1018.0
20221003041126 62 94 5.0 8.0 0.00 0.00 0.00 64 1018.1
20221003040858 62 123 5.0 9.0 0.00 0.00 0.00 64 1018.1
20221003040124 63 132 6.0 11.0 0.00 0.00 0.00 64 1018.1
20221003035623 62 116 6.0 11.0 0.00 0.00 0.00 63 1018.1
20221003035121 63 102 6.0 11.0 0.00 0.00 0.00 64 1018.2
20221003034619 63 141 6.0 11.0 0.00 0.00 0.00 64 1018.2
20221003034119 63 90 6.0 11.0 0.00 0.00 0.00 64 1018.3
20221003033620 64 94 5.0 12.0 0.00 0.00 0.00 63 1018.3
20221003032620 64 86 5.0 9.0 0.00 0.00 0.00 60 1018.5
20221003032118 64 151 4.0 9.0 0.00 0.00 0.00 60 1018.5
20221003031618 65 102 3.0 9.0 0.00 0.00 0.00 58 1018.5
20221003031118 65 109 3.0 9.0 0.00 0.00 0.00 57 1018.5
20221003030847 65 105 4.0 9.0 0.00 0.00 0.00 60 1018.6
20221003030117 65 131 3.0 8.0 0.00 0.00 0.00 60 1018.7
20221003025616 65 170 3.0 10.0 0.00 0.00 0.00 59 1018.6
20221003025116 65 118 4.0 10.0 0.00 0.00 0.00 62 1018.6
20221003024617 65 86 5.0 10.0 0.00 0.00 0.00 61 1018.7
20221003024115 65 210 4.0 10.0 0.00 0.00 0.00 60 1018.6
20221003023608 66 90 3.0 9.0 0.00 0.00 0.00 58 1018.6
20221003023102 66 6 2.0 7.0 0.00 0.00 0.00 54 1018.6
20221003022556 66 114 2.0 7.0 0.00 0.00 0.00 54 1018.6
20221003022048 66 101 2.0 5.0 0.00 0.00 0.00 53 1018.6
20221003021814 65 161 2.0 6.0 0.00 0.00 0.00 56 1018.7
20221003021038 65 133 3.0 6.0 0.00 0.00 0.00 55 1018.8
20221003020632 65 148 2.0 5.0 0.00 0.00 0.00 57 1018.7
20221003015519 64 143 2.0 6.0 0.00 0.00 0.00 59 1018.8
20221003015243 64 128 2.0 6.0 0.00 0.00 0.00 57 1018.8
20221003014508 64 52 3.0 7.0 0.00 0.00 0.00 59 1018.9
20221003014003 64 126 3.0 7.0 0.00 0.00 0.00 59 1018.9
20221003013455 64 111 3.0 6.0 0.00 0.00 0.00 59 1019.1
20221003012950 64 122 3.0 6.0 0.00 0.00 0.00 59 1019.1
20221003012445 64 93 3.0 7.0 0.00 0.00 0.00 60 1019.2
20221003011937 64 88 2.0 6.0 0.00 0.00 0.00 59 1019.3
20221003011432 65 112 2.0 5.0 0.00 0.00 0.00 60 1019.4
20221003010925 65 144 2.0 5.0 0.00 0.00 0.00 57 1019.4
20221003010418 64 133 2.0 4.0 0.00 0.00 0.00 56 1019.4
20221003005915 65 308 2.0 4.0 0.00 0.00 0.00 55 1019.5
20221003005408 64 341 1.0 3.0 0.00 0.00 0.00 57 1019.5
20221003004901 63 327 2.0 4.0 0.00 0.00 0.00 58 1019.6
20221003004628 62 142 2.0 4.0 0.00 0.00 0.00 59 1019.6
20221003003850 62 89 2.0 4.0 0.00 0.00 0.00 58 1019.7
20221003003345 62 71 1.0 3.0 0.00 0.00 0.00 60 1019.7
20221003002838 62 65 1.0 3.0 0.00 0.00 0.00 61 1019.8
20221003002331 61 28 1.0 3.0 0.00 0.00 0.00 63 1019.9
20221003002157 61 144 1.0 3.0 0.00 0.00 0.00 65 1020.0
20221003001045 60 164 1.0 2.0 0.00 0.00 0.00 66 1020.2
20221003000309 60 119 1.0 3.0 0.00 0.00 0.00 66 1020.2
20221002235801 60 63 1.0 4.0 0.00 0.00 0.00 66 1020.2
20221002235256 60 142 1.0 4.0 0.00 0.00 0.00 68 1020.3
20221002234751 60 24 1.0 4.0 0.00 0.00 0.00 69 1020.4
20221002234244 59 324 1.0 4.0 0.00 0.00 0.00 68 1020.5
20221002233737 59 358 1.0 4.0 0.00 0.00 0.00 68 1020.5
20221002233501 59 47 1.0 4.0 0.00 0.00 0.00 71 1020.5
20221002232727 58 346 1.0 4.0 0.00 0.00 0.00 73 1020.6
20221002232219 58 65 1.0 3.0 0.00 0.00 0.00 76 1020.7
20221002231714 57 3 1.0 3.0 0.00 0.00 0.00 77 1020.7
20221002231441 57 51 1.0 3.0 0.00 0.00 0.00 78 1020.8
20221002230934 56 35 1.0 2.0 0.00 0.00 0.00 78 1020.8
20221002230157 56 22 1.0 2.0 0.00 0.00 0.00 77 1020.9
20221002225650 57 43 1.0 3.0 0.00 0.00 0.00 77 1021.0
20221002225146 57 51 1.0 3.0 0.00 0.00 0.00 76 1021.0
20221002224638 56 39 1.0 3.0 0.00 0.00 0.00 79 1021.0
20221002224131 56 12 1.0 3.0 0.00 0.00 0.00 78 1021.2
20221002223626 55 334 1.0 4.0 0.00 0.00 0.00 79 1021.1
20221002223121 55 28 1.0 4.0 0.00 0.00 0.00 79 1021.2
20221002222614 54 10 2.0 4.0 0.00 0.00 0.00 79 1021.2
20221002222107 54 39 1.0 4.0 0.00 0.00 0.00 80 1021.2